Simultaneous Nadir Overpasses (SNOs) Predictions

Prediction of SNOs between AQUA and METOP-B Satellite Orbit:

Table of predicted SNOs for the next 14.0 days since TLE Epoch: 5/14/2022
Index Date (AQUA) Time (AQUA) Lat,Lon (AQUA) SZA (AQUA ) Date (METOP-B) Time (METOP-B) Lat,Lon (METOP-B) SZA (METOP-B ) Distance(km) Time Diff (sec)
1 05/14/2022 22:55:02 -73.33, 11.97 125.53 05/14/2022 22:53:55 -73.27, 9.48 125.51 79.77 67
2 05/14/2022 23:44:40 73.90, 178.37 55.06 05/14/2022 23:44:22 73.92, 178.31 55.08 2.75 18
3 05/15/2022 00:34:07 -73.98, -14.16 124.87 05/15/2022 00:35:02 -74.00, -14.18 124.86 1.76 55
4 05/17/2022 18:29:03 -73.91, 77.27 125.58 05/17/2022 18:28:02 -73.90, 77.35 125.57 2.60 61
5 05/17/2022 19:18:31 73.97,-115.22 54.48 05/17/2022 19:18:41 73.95,-115.20 54.46 1.83 10
6 05/17/2022 20:08:05 -74.40, 51.41 125.07 05/17/2022 20:09:14 -74.37, 53.18 125.15 52.96 69
7 05/20/2022 14:02:54 -73.95, 143.74 126.14 05/20/2022 14:02:22 -73.93, 143.83 126.15 3.22 32
8 05/20/2022 14:52:21 73.96, -48.64 53.87 05/20/2022 14:53:01 73.97, -48.74 53.88 3.54 40
9 05/23/2022 08:47:16 73.84, 42.89 53.20 05/23/2022 08:46:03 73.81, 42.63 53.19 8.78 73
10 05/23/2022 09:36:44 -73.96,-149.73 126.68 05/23/2022 09:36:42 -73.95,-149.71 126.69 1.45 2
11 05/23/2022 10:26:12 74.02, 17.76 53.38 05/23/2022 10:27:20 74.04, 17.83 53.39 2.57 68
12 05/26/2022 04:21:07 73.94, 109.23 52.80 05/26/2022 04:20:21 73.92, 109.30 52.78 3.33 46
13 05/26/2022 05:10:32 -73.95, -83.16 127.20 05/26/2022 05:11:01 -73.96, -83.26 127.19 3.39 29



Historial Predications of SNOs between AQUA and METOP-B
